カタログに戻る

CZ-4B DEB

運用中SSO
NORAD 27433·DEBRIS·🇨🇳 China

打ち上げ May 15, 2002 から Taiyuan Satellite Launch Center

Loading…

次のパス (今後24時間)

TLE

最新Source: Space-Track

元期: Sep 14, 2026, 14:51 UTC

1 27433U 02024D   26257.61909244  .00000225  00000-0  13996-3 0  9994
2 27433  98.9126 306.2887 0013303 245.0089 114.9702 14.14751525253973

AllMySatでCZ-4B DEBをリアルタイム追跡

Download on the App Store